Location: Unspecified
(51.6250°N, 0.8230°E)
Time: 17:15:55
(UTC+00:00)

Okean 3 - Visible Passes

Search period start: 14 December 2018 00:00
Search period end: 24 December 2018 00:00
Orbit: 577 x 601 km, 82.5° (Epoch: 14 December)

Date Brightness Start Highest point End Pass type
(mag) Time Alt. Az. Time Alt. Az. Time Alt. Az.
14 Dec 5.0 16:25:00 10° SE 16:28:00 19° E 16:31:01 10° NE visible
14 Dec 4.2 18:00:38 10° SSW 18:04:51 54° WNW 18:09:04 10° N visible
15 Dec 4.6 16:32:18 10° SE 16:35:52 25° E 16:39:25 10° NNE visible
15 Dec 4.8 18:08:54 10° SW 18:12:57 39° WNW 18:17:00 10° N visible
16 Dec 4.2 16:39:51 10° SSE 16:43:46 35° E 16:47:42 10° NNE visible
16 Dec 5.4 18:17:19 10° SW 18:21:04 28° WNW 18:24:50 10° N visible
17 Dec 3.7 16:47:32 10° S 16:51:42 49° E 16:55:52 10° NNE visible
17 Dec 5.9 18:25:55 10° WSW 18:29:14 21° WNW 18:32:34 10° NNW visible
18 Dec 3.5 16:55:23 10° S 16:59:40 71° E 17:03:58 10° NNE visible
18 Dec 6.3 18:34:44 10° WSW 18:37:26 16° WNW 18:40:08 10° NNW visible
19 Dec 3.6 17:03:22 10° SSW 17:07:40 82° W 17:12:00 10° N visible
19 Dec 6.4 18:43:59 10° W 18:45:41 12° WNW 18:47:23 10° NW visible
20 Dec 4.1 17:11:28 10° SSW 17:15:42 58° WNW 17:19:58 10° N visible
21 Dec 4.8 17:19:43 10° SW 17:23:47 41° WNW 17:27:53 10° N visible
22 Dec 5.3 17:28:06 10° SW 17:31:54 30° WNW 17:35:43 10° N visible
23 Dec 5.8 17:36:40 10° WSW 17:40:03 22° WNW 17:43:28 10° NNW visible
